Flag for Canada Weather past 2 weeks in Paradise, Newfoundland and Labrador, Canada

Now
32 °F

Scattered clouds.


Feels Like: 22 °F
Forecast: N/A
Wind: 15 mph from Northeast

Location: St. John's


UV Index: N/A

Visibility: 15 mi


Pressure: 30.68 "Hg

Humidity: 75%

Dew point: 25 °F

Location of ParadiseLocation

Historic Weather in Paradise

°F

Paradise temperature yesterday

Maximum temperature yesterday: 64 °F (at 1:30 PM)
Minimum temperature yesterday: 48 °F (at 11:30 PM)
Average temperature yesterday: 56 °F

Past Weeks' High & Low Weather Summary

 TemperatureHumidityPressure
High64 °F (Apr 16, 1:30 PM)100% (Apr 5, 3:30 AM)30.65 "Hg (Apr 5, 3:30 AM)
Low21 °F (Apr 3, 9:30 PM)37% (Apr 11, 12:30 PM)29.35 "Hg (Apr 10, 4:30 AM)
Average36 °F83%30.04 "Hg
* Reported Apr 2 5:30 PM — Apr 17 5:30 PM, Paradise, Weather by CustomWeather, © 2014

Note: Actual official high and low records may vary slightly from our data, if they occured in-between our weather recording intervals... More about our weather records

Advertising

Historic Weather Conditions — Data for Previous 24 hours

 ConditionsComfort  
Time TempWeatherWind HumidityBarometerVisibility
5:30 PM
Apr 17
36 °FPassing clouds.13 mph56%30.65 "Hg15 mi
4:30 PM37 °FPassing clouds.12 mph56%30.63 "Hg15 mi
3:30 PM37 °FPassing clouds.12 mph52%30.62 "Hg15 mi
2:30 PM41 °FPassing clouds.16 mph42%30.60 "Hg15 mi
1:30 PM39 °FPassing clouds.10 mph45%30.59 "Hg15 mi
12:30 PM37 °FPassing clouds.13 mph52%30.58 "Hg15 mi
11:30 AM37 °FScattered clouds.13 mph52%30.56 "Hg15 mi
10:30 AM36 °FScattered clouds.13 mph60%30.55 "Hg15 mi
9:30 AM34 °FScattered clouds.16 mph60%30.53 "Hg15 mi
8:30 AM32 °FPartly sunny.13 mph69%30.50 "Hg15 mi
7:30 AM32 °FBroken clouds.17 mph69%30.47 "Hg15 mi
6:30 AM30 °FPassing clouds.13 mph80%30.41 "Hg15 mi
5:30 AM34 °FPassing clouds.15 mph75%30.35 "Hg15 mi
4:30 AM36 °FLow clouds.17 mph81%30.32 "Hg15 mi
3:30 AM39 °FMostly cloudy.16 mph87%30.28 "Hg15 mi
2:30 AM41 °FOvercast.15 mph93%30.24 "Hg15 mi
1:30 AM43 °FOvercast.16 mph93%30.20 "Hg15 mi
12:30 AM45 °FMostly cloudy.20 mph93%30.16 "Hg15 mi
11:30 PM
Apr 16
48 °FDrizzle. Low clouds.26 mph94%30.12 "Hg12 mi
10:30 PM54 °FOvercast.24 mph88%30.10 "Hg15 mi
9:30 PM57 °FOvercast.28 mph88%30.10 "Hg15 mi
8:30 PM55 °FOvercast.22 mph88%30.11 "Hg15 mi
7:30 PM57 °FPartly sunny.20 mph82%30.11 "Hg15 mi
Weather by CustomWeather, © 2014

See weather overview